GW6027 Weather Reports


time (UTC)temp
C
wind
direction
speed
KPH
gust
KPH
rain 1hr
cm
rain 24hr
cm
rain mn
cm
humidity
%
barometer
mb
20260506045133 11 211 1.6 4.8 0.00 0.66 0.00 92 1007.1
20260506042323 11 294 1.6 8.0 0.03 0.66 0.00 92 1007.1
20260506040327 11 313 6.4 12.9 0.05 0.66 0.00 92 1007.0
20260506033837 11 327 4.8 8.0 0.23 0.66 0.00 91 1007.3
20260506031538 11 329 8.0 14.5 0.48 0.66 0.00 91 1007.2
20260506025257 12 340 6.4 12.9 0.53 0.64 0.64 91 1007.4
20260506022716 12 309 4.8 19.3 0.61 0.61 0.61 90 1007.9
20260506020727 12 294 12.9 22.5 0.43 0.43 0.43 89 1007.9
20260506015105 13 284 9.7 30.6 0.18 0.18 0.18 88 1008.0
20260506012958 15 265 12.9 27.4 0.10 0.10 0.10 87 1007.0
20260506011119 16 291 8.0 14.5 0.00 0.00 0.00 73 1006.7
20260506004918 17 235 4.8 17.7 0.00 0.00 0.00 69 1006.5
20260506002925 17 225 8.0 12.9 0.00 0.00 0.00 67 1006.2
20260506001041 17 42 1.6 8.0 0.00 0.00 0.00 65 1005.4
20260505235309 17 44 4.8 11.3 0.00 0.00 0.00 63 1005.4
20260505233319 17 65 8.0 16.1 0.00 0.00 0.00 64 1005.4
20260505231325 17 55 8.0 16.1 0.00 0.00 0.00 62 1005.5
20260505225327 18 44 6.4 8.0 0.00 0.00 0.00 58 1005.5
20260505223600 19 46 4.8 9.7 0.00 0.00 0.00 58 1005.5
20260505222042 19 99 1.6 6.4 0.00 0.00 0.00 63 1005.4
20260505220158 20 58 8.0 24.1 0.00 0.00 0.00 62 1005.4
20260505214208 20 76 16.1 25.7 0.00 0.00 0.00 61 1005.5
20260505212545 20 70 12.9 19.3 0.00 0.00 0.00 61 1005.5
20260505210704 20 70 14.5 27.4 0.00 0.00 0.00 59 1005.5
20260505205039 21 39 16.1 33.8 0.00 0.00 0.00 55 1005.5
20260505203158 21 28 11.3 30.6 0.00 0.00 0.00 54 1005.6
20260505201649 21 46 16.1 32.2 0.00 0.00 0.00 53 1005.7
20260505195804 22 49 9.7 32.2 0.00 0.00 0.00 52 1005.6
20260505193921 22 40 17.7 30.6 0.00 0.00 0.00 52 1005.6
20260505191926 22 42 11.3 27.4 0.00 0.00 0.00 51 1005.6
20260505190213 23 101 8.0 12.9 0.00 0.00 0.00 44 1005.7
20260505184329 22 80 8.0 17.7 0.00 0.00 0.00 44 1005.8
20260505182557 23 84 16.1 20.9 0.00 0.00 0.00 42 1005.9
20260505180450 23 103 8.0 16.1 0.00 0.00 0.00 40 1006.0
20260505174722 23 43 6.4 11.3 0.00 0.00 0.00 39 1006.1
20260505173112 23 37 6.4 17.7 0.00 0.00 0.00 41 1006.4
20260505171610 24 51 1.6 8.0 0.00 0.00 0.00 37 1006.6
20260505165658 23 31 4.8 17.7 0.00 0.00 0.00 38 1006.7
20260505163927 23 53 11.3 20.9 0.00 0.00 0.00 41 1006.6
20260505162156 23 40 6.4 19.3 0.00 0.00 0.00 41 1006.7
20260505160201 23 324 6.4 17.7 0.00 0.00 0.00 40 1007.0
20260505152212 23 46 8.0 16.1 0.00 0.00 0.00 42 1007.1
20260505150217 23 67 9.7 17.7 0.00 0.00 0.00 43 1007.3
20260505140608 22 35 11.3 17.7 0.00 0.00 0.00 43 1007.8
20260505123130 21 299 4.8 12.9 0.00 0.00 0.00 46 1008.7
20260505121532 20 349 6.4 17.7 0.00 0.00 0.00 51 1008.8
20260505115736 20 39 8.0 16.1 0.00 0.00 0.00 50 1008.8
20260505113955 19 11 12.9 19.3 0.00 0.00 0.00 54 1008.8
20260505112556 20 36 8.0 16.1 0.00 0.00 0.00 53 1009.0
20260505111050 18 53 9.7 12.9 0.00 0.00 0.00 59 1009.2
20260505100630 17 324 4.8 16.1 0.00 0.00 0.00 65 1009.4
20260505094543 17 68 8.0 12.9 0.00 0.00 0.00 67 1009.6
20260505092759 17 4 3.2 6.4 0.00 0.00 0.00 66 1009.8
20260505091137 16 13 1.6 6.4 0.00 0.00 0.00 68 1010.0
20260505084922 16 356 0.0 1.6 0.00 0.00 0.00 70 1009.9
20260505083300 15 11 3.2 6.4 0.00 0.00 0.00 70 1009.8
20260505081309 15 304 3.2 4.8 0.00 0.00 0.00 72 1010.0
20260505075202 15 305 1.6 4.8 0.00 0.00 0.00 74 1009.9
20260505073652 14 310 3.2 6.4 0.00 0.00 0.00 75 1010.0
20260505072029 14 322 1.6 4.8 0.00 0.00 0.00 73 1010.0
20260505070255 14 304 1.6 4.8 0.00 0.00 0.00 74 1010.1
20260505064158 14 308 0.0 1.6 0.00 0.00 0.00 71 1010.1
20260505062527 15 308 0.0 0.0 0.00 0.00 0.00 70 1010.1
20260505061346 15 308 0.0 1.6 0.00 0.00 0.00 70 1010.1
20260505055837 14 303 0.0 1.6 0.00 0.00 0.00 71 1010.1